Weather reports worldwide

Advertisment
Brindisi, Italy (16320): temperature & dewpoint: 27.06.2020 19:00:00 - 03.07.2020 19:00:00 (CEST)Brindisi, Italy (16320): wind speed: 27.06.2020 19:00:00 - 03.07.2020 19:00:00 (CEST)Brindisi, Italy (16320): wind direction: 27.06.2020 19:00:00 - 03.07.2020 19:00:00 (CEST)Brindisi, Italy (16320): reduced air pressure: 27.06.2020 19:00:00 - 03.07.2020 19:00:00 (CEST)Brindisi, Italy (16320): visibility: 27.06.2020 19:00:00 - 03.07.2020 19:00:00 (CEST)Brindisi, Italy (16320): precipitation: 27.06.2020 19:00:00 - 03.07.2020 19:00:00 (CEST)
Date & Time tt [°C] td [°C] ff [km/h] ff [kn] dd ppp [hPa] vv [km] rr [mm]
03.07.2020 19:00:00 - - - - - - - -
03.07.2020 18:00:00 28,0 24,0 8 4 NE - 10 -
03.07.2020 17:00:00 29,5 22,7 15 8 NNW 1009,4 10 0,0
03.07.2020 16:00:00 29,0 24,0 16 9 NE - 10 -
03.07.2020 15:00:00 29,0 25,0 16 9 NE - 10 -
03.07.2020 14:00:00 29,4 24,7 16 9 NNE 1009,7 10 -
03.07.2020 13:00:00 29,0 22,0 15 8 NNE - 10 -
03.07.2020 12:00:00 29,0 22,0 15 8 NNE - 10 -
03.07.2020 11:00:00 28,9 22,1 11 6 NNW 1009,9 10 0,0
03.07.2020 10:00:00 28,0 22,0 13 7 N - 10 -
03.07.2020 09:00:00 28,0 23,0 9 5 NW - 10 -
03.07.2020 08:00:00 27,5 23,5 8 4 N 1009,5 10 -
03.07.2020 07:00:00 26,0 24,0 9 5 NNW - 9 -
03.07.2020 06:00:00 24,0 23,0 5 3 WNW - 8 -
03.07.2020 05:00:00 24,3 23,2 8 4 NW 1009,1 3,3 0,0
03.07.2020 04:00:00 24,0 22,0 8 4 WNW - 9 -
03.07.2020 03:00:00 24,0 22,0 9 5 WNW - 10 -
03.07.2020 02:00:00 24,5 22,6 8 4 NNW 1009,2 7 -
03.07.2020 01:00:00 26,0 23,0 2 1 NW - 10 -
03.07.2020 00:00:00 26,0 23,0 5 3 W - 10 -
02.07.2020 23:00:00 26,6 23,3 4 2 NE 1009,8 10 0,0
02.07.2020 22:00:00 27,0 24,0 8 4 NNE - 10 -
02.07.2020 21:00:00 28,0 23,0 5 3 N - 10 -
02.07.2020 20:00:00 28,1 20,6 2 1 - 1009,4 10 -
02.07.2020 19:00:00 30,0 20,0 8 4 E - 10 -
02.07.2020 18:00:00 29,0 22,0 13 7 E - 10 -
02.07.2020 17:00:00 30,1 20,4 15 8 E 1009,3 10 0,0
02.07.2020 16:00:00 30,0 20,0 18 10 E - 10 -
02.07.2020 15:00:00 30,0 21,0 18 10 E - 10 -
02.07.2020 14:00:00 29,4 20,8 15 8 ENE 1010,4 10 -
02.07.2020 13:00:00 29,0 22,0 13 7 ENE - 10 -
02.07.2020 12:00:00 29,0 21,0 11 6 NE - 10 -
02.07.2020 11:00:00 28,8 22,0 9 5 ENE 1010,8 10 0,0
02.07.2020 10:00:00 28,0 22,0 8 4 ENE - 10 -
02.07.2020 09:00:00 28,0 21,0 8 4 NE - 10 -
02.07.2020 08:00:00 29,5 18,5 5 3 NW 1010,5 10 -
02.07.2020 07:00:00 26,0 18,0 8 4 W - 10 -
02.07.2020 06:00:00 23,0 19,0 8 4 W - 10 -
02.07.2020 05:00:00 24,5 19,5 8 4 SSW 1010,1 10 0,0
02.07.2020 04:00:00 25,0 20,0 8 4 S - 10 -
02.07.2020 03:00:00 26,0 20,0 9 5 SSE - 10 -
02.07.2020 02:00:00 25,1 17,8 9 5 E 1010,6 10 -
02.07.2020 01:00:00 26,0 18,0 13 7 WSW - 10 -
02.07.2020 00:00:00 26,0 19,0 11 6 WSW - 10 -
01.07.2020 23:00:00 27,2 19,5 11 6 WSW 1010,7 10 0,0
01.07.2020 22:00:00 28,0 18,0 5 3 S - 10 -
01.07.2020 21:00:00 28,0 17,0 5 3 SSE - 10 -
01.07.2020 20:00:00 28,7 19,2 8 4 E 1010,8 10 -
01.07.2020 19:00:00 30,0 18,0 9 5 E - 10 -
01.07.2020 18:00:00 30,0 19,0 9 5 E - 10 -
01.07.2020 17:00:00 29,3 19,0 13 7 ENE 1011,3 10 0,0
01.07.2020 16:00:00 - - - - - - 10 -
01.07.2020 15:00:00 29,0 20,0 13 7 ENE - 10 -
01.07.2020 14:00:00 28,1 22,9 11 6 NE 1011,9 10 -
01.07.2020 13:00:00 28,0 22,0 13 7 N - 10 -
01.07.2020 12:00:00 28,0 20,0 15 8 N - 10 -
01.07.2020 11:00:00 28,6 18,9 13 7 NNE 1012,5 10 0,0
01.07.2020 10:00:00 28,0 21,0 11 6 NNE - 10 -
01.07.2020 09:00:00 28,0 17,0 13 7 NNW - 10 -
01.07.2020 08:00:00 27,9 18,5 4 2 - 1012,0 10 -
01.07.2020 07:00:00 25,0 19,0 8 4 WSW - 10 -
01.07.2020 06:00:00 22,0 17,0 8 4 WSW - 10 -
01.07.2020 05:00:00 22,5 16,0 4 2 SW 1011,5 10 0,0
01.07.2020 04:00:00 23,0 16,0 5 3 W - 10 -
01.07.2020 03:00:00 24,0 16,0 5 3 W - 10 -
01.07.2020 02:00:00 23,1 16,9 2 1 N 1012,0 - -
01.07.2020 01:00:00 24,0 17,0 2 1 - - 10 -
01.07.2020 00:00:00 26,0 18,0 2 1 SSE - 10 -
30.06.2020 23:00:00 25,6 18,7 2 1 NW 1012,0 10 0,0
30.06.2020 22:00:00 27,0 20,0 5 3 WSW - 10 -
30.06.2020 21:00:00 27,0 21,0 4 2 - - 10 -
30.06.2020 20:00:00 28,2 16,7 9 5 N 1011,5 10 -
30.06.2020 19:00:00 29,0 19,0 9 5 N - 10 -
30.06.2020 18:00:00 29,0 19,0 8 4 NNE - 10 -
30.06.2020 17:00:00 29,6 19,7 9 5 NE 1011,9 10 0,0
30.06.2020 16:00:00 29,0 17,0 11 6 E - 10 -
30.06.2020 15:00:00 28,0 20,0 13 7 E - 10 -
30.06.2020 14:00:00 27,5 21,8 11 6 NNE 1012,6 10 -
30.06.2020 13:00:00 28,0 21,0 13 7 NNE - 10 -
30.06.2020 12:00:00 27,0 21,0 13 7 NNE - 10 -
30.06.2020 11:00:00 27,7 20,3 13 7 NE 1013,0 10 0,0
30.06.2020 10:00:00 27,0 20,0 13 7 NNE - 10 -
30.06.2020 09:00:00 - - - - - - - -
30.06.2020 08:00:00 26,6 20,6 13 7 N 1012,0 10 -
30.06.2020 07:00:00 26,0 20,0 8 4 NNW - 10 -
30.06.2020 06:00:00 22,0 17,0 4 2 W - 10 -
30.06.2020 05:00:00 23,1 17,1 8 4 WNW 1010,9 10 0,0
30.06.2020 04:00:00 23,0 19,0 9 5 WSW - 10 -
30.06.2020 03:00:00 24,0 20,0 5 3 SW - 10 -
30.06.2020 02:00:00 23,9 19,3 4 2 W 1011,0 10 -
30.06.2020 01:00:00 24,0 20,0 2 1 - - 10 -
30.06.2020 00:00:00 25,0 19,0 4 2 - - 10 -
29.06.2020 23:00:00 26,2 16,4 8 4 S 1011,4 10 0,0
29.06.2020 22:00:00 26,0 17,0 5 3 SSE - 10 -
29.06.2020 21:00:00 27,0 18,0 8 4 SSE - 10 -
29.06.2020 20:00:00 27,3 18,0 8 4 E 1011,0 10 -
29.06.2020 19:00:00 28,0 16,0 9 5 E - 10 -
29.06.2020 18:00:00 28,0 17,0 8 4 E - 10 -
29.06.2020 17:00:00 27,6 18,2 9 5 E 1011,0 10 0,0
29.06.2020 16:00:00 28,0 17,0 9 5 ENE - 10 -
29.06.2020 15:00:00 28,0 19,0 11 6 NE - 10 -
29.06.2020 14:00:00 27,3 18,9 15 8 NE 1012,6 10 -
29.06.2020 13:00:00 27,0 18,0 11 6 NNE - 10 -
29.06.2020 12:00:00 27,0 18,0 9 5 NNE - 10 -
29.06.2020 11:00:00 26,9 17,8 13 7 N 1013,4 10 0,0
29.06.2020 10:00:00 27,0 17,0 9 5 N - 10 -
29.06.2020 09:00:00 26,0 17,0 8 4 NNE - 10 -
29.06.2020 08:00:00 24,9 19,5 5 3 NE 1013,2 10 -
29.06.2020 07:00:00 23,0 14,0 2 1 - - 10 -
29.06.2020 06:00:00 21,0 14,0 9 5 W - 10 -
29.06.2020 05:00:00 20,4 14,1 9 5 W 1012,6 10 0,0
29.06.2020 04:00:00 21,0 15,0 5 3 WSW - 10 -
29.06.2020 03:00:00 20,0 17,0 11 6 W - 10 -
29.06.2020 02:00:00 21,0 18,7 4 2 NW 1013,3 10 -
29.06.2020 01:00:00 21,0 19,0 4 2 WNW - 10 -
29.06.2020 00:00:00 22,0 19,0 5 3 WNW - 10 -
28.06.2020 23:00:00 23,6 20,1 2 1 - 1014,4 10 0,0
28.06.2020 22:00:00 24,0 20,0 2 1 - - 10 -
28.06.2020 21:00:00 24,0 21,0 4 2 N - 10 -
28.06.2020 20:00:00 25,1 21,3 9 5 NNE 1014,2 10 -
28.06.2020 19:00:00 25,0 22,0 13 7 N - 10 -
28.06.2020 18:00:00 26,0 20,0 15 8 N - 10 -
28.06.2020 17:00:00 26,9 20,0 15 8 N 1014,1 10 0,0
28.06.2020 16:00:00 27,0 19,0 11 6 N - 10 -
28.06.2020 15:00:00 26,0 21,0 13 7 NNE - 10 -
28.06.2020 14:00:00 26,9 20,4 15 8 NNE 1015,3 10 -
28.06.2020 13:00:00 27,0 20,0 15 8 NNE - 10 -
28.06.2020 12:00:00 28,0 15,0 11 6 NNE - 10 -
28.06.2020 11:00:00 27,7 13,3 8 4 NNE 1015,7 10 0,0
28.06.2020 10:00:00 27,0 18,0 8 4 N - 10 -
28.06.2020 09:00:00 25,0 20,0 9 5 N - 10 -
28.06.2020 08:00:00 24,1 21,0 8 4 NNW 1015,5 10 -
28.06.2020 07:00:00 22,0 17,0 4 2 - - 10 -
28.06.2020 06:00:00 20,0 17,0 8 4 W - 10 -
28.06.2020 05:00:00 19,6 15,9 2 1 NNW 1014,9 10 0,0
28.06.2020 04:00:00 20,0 17,0 4 2 SW - 10 -
28.06.2020 03:00:00 21,0 17,0 2 1 - - 10 -
28.06.2020 02:00:00 21,5 16,9 5 3 WSW 1014,9 10 -
28.06.2020 01:00:00 23,0 19,0 9 5 WSW - 10 -
28.06.2020 00:00:00 24,0 20,0 8 4 WSW - 10 -
27.06.2020 23:00:00 24,3 21,0 5 3 SSE 1015,1 10 0,0
27.06.2020 22:00:00 25,0 21,0 8 4 ESE - 10 -
27.06.2020 21:00:00 25,0 20,0 5 3 E - 10 -
27.06.2020 20:00:00 26,0 19,0 8 4 E 1014,6 10 -
27.06.2020 19:00:00 26,0 21,0 8 4 NE - 10 -

tt = temperature
td = dewpoint
ff = wind speed
dd = wind direction
ppp = reduced air pressure
vv = visibility
rr = precipitation

Next stations